GFSSGP_sfc_temp_159.txt.gz
Temp
75 78 82 82 71 68 66 70 74 74 77 85 85 83 83 83 79 74 86 88 89 86 85 84 80 80 80 79 79 79 79 79 79 79 79 79 79 79 79 79 80 80 81 81 81 81 80 80 80
78 78 81 75 66 61 67 72 71 80 83 84 85 87 84 82 88 82 83 86 88 86 85 85 79 79 79 79 78 78 78 78 79 79 79 79 79 79 79 79 80 80 81 81 81 81 80 80 80
77 77 75 71 65 62 68 71 77 82 84 83 84 88 85 84 87 88 87 86 86 85 86 84 79 79 79 79 78 78 78 78 78 79 79 79 79 79 79 79 79 80 81 81 80 80 80 80 79
77 77 72 63 61 67 71 74 77 79 84 84 84 82 90 89 87 88 87 86 84 86 86 81 79 78 79 79 78 78 78 78 78 79 79 79 79 78 78 79 79 80 80 80 80 80 79 79 79
76 71 64 59 62 65 70 77 75 76 78 82 82 82 84 84 86 86 86 86 84 84 87 85 78 78 79 79 78 78 78 78 78 79 79 79 78 78 78 78 79 80 80 80 79 79 78 78 78
68 68 58 58 62 64 70 73 76 77 80 81 81 82 85 84 84 84 87 87 88 84 84 84 79 78 78 78 78 78 78 78 78 78 78 78 78 78 78 78 78 79 79 79 79 78 78 78 78
65 62 60 61 62 65 69 74 73 76 79 81 85 79 85 82 84 85 86 86 86 86 84 84 84 81 78 78 78 78 78 78 78 78 78 78 78 78 78 78 78 78 78 78 78 78 78 77 77
67 64 60 60 61 63 72 73 77 77 78 89 86 79 82 83 84 84 85 85 86 86 86 84 84 86 84 83 78 78 78 78 77 77 77 77 77 77 77 77 77 78 78 78 78 78 77 77 77
66 58 56 59 60 66 71 71 76 80 80 81 86 88 86 84 83 81 80 81 84 84 82 84 85 85 85 86 82 78 78 78 77 78 77 77 86 84 83 80 77 78 78 78 77 77 77 77 77
62 57 59 64 67 68 71 73 75 74 75 78 81 89 90 84 81 78 77 77 81 81 80 82 84 84 85 85 83 83 83 84 84 85 83 86 84 84 85 82 77 78 78 77 77 77 77 78 88
61 55 64 64 67 69 69 69 74 73 71 78 79 84 85 82 81 81 81 82 83 82 78 80 81 82 84 85 83 84 84 84 83 82 82 82 84 84 85 86 86 84 80 87 84 85 87 85 86
54 60 61 64 66 64 64 68 67 71 75 82 82 80 83 80 80 81 82 83 83 81 78 78 80 80 82 84 83 83 83 82 83 83 81 81 81 81 82 84 84 83 86 84 84 88 84 84 84
54 60 61 63 63 64 66 64 65 68 74 78 80 79 80 83 81 82 83 84 84 81 79 77 78 80 81 80 82 83 82 82 83 83 82 83 83 81 82 82 84 85 86 86 86 86 84 84 84
56 57 58 61 63 64 61 64 66 70 76 75 76 78 81 82 84 82 80 80 80 81 78 78 78 80 82 81 80 81 81 83 83 83 82 80 82 80 82 82 83 84 85 87 86 84 83 81 81
57 52 56 58 60 60 64 58 61 72 75 73 74 77 79 81 85 82 82 79 80 80 80 76 79 81 81 81 81 81 82 83 83 83 81 81 80 80 80 82 83 84 84 83 84 83 82 79 79
52 52 47 56 59 62 62 53 68 74 72 72 75 77 79 81 85 84 83 80 80 80 78 77 81 81 80 79 79 81 82 82 83 83 82 81 80 80 79 82 83 84 84 85 81 76 75 75 77
48 43 44 49 60 59 59 56 67 72 72 70 73 75 78 80 83 82 82 81 80 80 78 77 79 80 79 75 76 79 79 81 83 82 82 81 81 81 81 82 82 81 78 77 77 74 73 72 72
42 42 46 46 55 58 56 56 64 68 69 68 70 73 75 78 82 81 81 80 79 79 79 78 78 76 74 73 77 80 80 81 82 82 82 80 81 80 80 82 80 79 77 77 76 73 71 69 69
49 45 44 49 55 52 53 55 59 63 66 66 69 72 74 76 83 81 80 78 78 78 75 74 73 73 74 76 77 78 79 79 80 81 81 81 81 80 80 77 76 77 73 72 71 71 69 68 68
47 44 44 50 53 52 51 51 58 61 63 66 68 71 73 76 78 78 78 78 77 74 72 73 75 76 76 80 79 81 81 80 81 81 79 80 79 76 74 72 71 72 69 68 66 66 68 66 66
45 43 44 43 50 52 50 47 52 60 64 66 69 73 75 76 76 76 77 77 76 75 74 74 75 75 77 77 79 78 79 79 72 71 72 70 70 71 74 69 67 68 67 64 64 65 66 65 68
40 50 47 45 42 38 51 38 52 58 60 64 68 71 74 76 78 77 77 76 77 78 80 78 76 75 76 76 78 77 78 68 68 68 67 67 69 68 68 67 65 66 65 64 64 64 66 66 66
42 51 47 45 42 42 44 41 49 57 56 62 67 71 73 78 78 77 78 78 80 80 80 78 76 76 77 77 78 71 67 66 66 66 65 64 64 67 64 63 62 62 63 63 64 64 63 65 64
49 41 42 42 41 30 41 42 46 52 57 63 69 72 73 76 79 79 80 80 79 80 78 76 75 74 76 75 71 69 67 66 64 64 63 63 61 61 61 60 60 62 62 63 63 63 62 62 64
42 36 29 26 26 28 46 41 46 58 63 66 70 73 74 75 78 78 78 77 75 74 74 75 71 72 74 71 70 70 69 68 65 65 63 61 60 60 58 60 60 61 62 63 63 63 63 64 64
38 40 32 22 26 35 44 35 46 59 64 67 72 75 74 73 77 77 78 77 75 74 73 72 73 72 72 71 70 71 72 72 70 67 66 65 61 58 58 59 61 62 62 61 62 64 64 63 64
35 32 45 32 39 36 41 47 56 60 62 65 67 69 71 72 74 75 76 74 70 70 69 70 72 71 73 69 70 73 71 68 65 64 64 62 61 61 60 61 60 61 61 61 61 63 62 63 63
38 46 30 33 26 26 38 41 45 55 58 64 66 68 71 72 74 74 73 69 69 67 66 67 68 68 69 70 72 69 66 64 63 63 60 61 61 60 60 61 60 59 61 60 60 61 61 62 64
36 34 36 40 38 30 33 42 58 60 62 63 68 71 70 72 73 71 68 66 64 62 63 63 64 65 65 65 64 63 63 64 63 63 63 61 60 60 59 59 59 58 59 59 59 60 61 62 62
47 41 41 33 33 36 34 43 64 64 67 66 68 68 73 73 69 65 62 62 61 60 60 60 61 61 61 62 62 61 61 61 62 61 61 61 60 60 59 59 58 58 57 58 59 60 61 62 63

GFSSGP_sfc_temp_162.txt.gz
Temp
80 90 94 91 78 80 78 82 90 86 88 95 95 93 93 95 88 82 96 98 99 96 92 87 80 80 80 80 80 80 79 79 79 79 79 79 79 79 80 80 80 81 81 81 81 81 81 81 81
90 88 91 89 74 73 78 88 84 89 94 95 94 95 94 91 100 94 94 96 98 96 92 91 80 80 80 80 79 79 79 79 79 79 79 79 79 79 79 79 80 81 81 81 81 81 81 81 80
87 89 85 80 75 73 79 89 89 93 95 93 92 96 94 91 95 98 99 97 98 94 94 91 80 79 80 79 79 79 79 79 79 79 79 79 79 79 79 79 80 81 81 81 81 81 80 80 80
87 86 85 73 73 80 84 90 88 91 95 96 95 89 98 96 95 98 98 97 97 96 96 84 79 79 79 79 79 79 79 79 79 79 79 79 79 79 79 79 80 80 81 81 81 80 80 80 80
87 85 73 71 74 82 85 90 89 88 92 94 95 90 92 94 96 98 96 96 95 97 95 89 79 79 79 79 79 79 78 78 79 79 79 79 79 79 79 79 80 80 80 80 80 79 79 79 79
78 81 70 69 75 82 86 88 88 88 92 93 88 91 94 95 94 97 97 96 97 94 91 91 80 79 79 79 79 78 78 78 79 79 79 79 78 78 78 79 79 80 80 80 79 79 78 79 79
74 74 69 74 76 80 83 88 84 86 89 90 94 86 96 95 95 96 97 97 96 95 92 87 90 85 78 78 78 78 78 78 78 78 78 78 78 78 78 78 79 79 79 79 79 78 78 78 78
78 76 69 74 73 75 87 86 87 86 86 98 97 84 89 98 94 96 98 98 97 96 94 91 87 91 86 87 78 78 78 78 78 78 78 78 78 78 78 77 78 78 78 78 78 78 78 78 78
78 68 65 72 75 75 87 80 88 91 88 92 95 93 98 93 93 94 94 95 96 95 94 94 94 92 93 91 85 79 78 78 78 79 78 78 91 88 84 82 78 78 78 78 78 78 78 78 78
70 65 69 79 81 78 83 83 85 83 83 86 89 96 98 95 92 89 89 91 93 93 94 95 94 92 94 92 85 87 88 89 89 89 86 92 92 91 93 84 78 78 78 78 78 78 78 78 96
70 63 75 78 78 79 78 81 84 81 80 86 86 92 95 96 92 92 92 94 94 94 93 94 91 90 93 93 91 90 89 90 89 88 87 90 91 89 92 90 89 89 81 92 86 88 93 93 94
64 69 71 74 76 73 72 79 78 79 82 91 92 93 90 91 91 92 93 94 94 94 90 93 92 88 90 93 92 92 92 90 91 91 88 88 89 88 91 93 93 91 93 92 91 96 93 91 91
64 67 71 73 73 73 74 72 73 76 82 87 89 89 88 90 91 92 93 95 94 92 89 91 90 88 89 88 91 91 91 90 89 89 89 91 91 88 90 90 93 93 95 94 93 93 93 93 93
68 65 66 69 70 72 69 71 74 77 82 81 83 85 88 89 91 92 91 91 90 91 88 89 87 87 89 88 88 89 90 90 91 90 90 89 91 87 90 89 91 92 93 95 94 93 92 93 91
65 59 64 66 68 67 71 65 67 77 81 79 82 85 87 89 92 92 92 89 89 89 86 82 83 88 87 87 87 89 90 92 91 91 89 88 88 86 88 91 90 92 92 90 90 90 91 90 91
60 61 55 67 66 68 67 58 73 80 79 78 81 83 85 88 91 93 95 91 86 87 82 79 85 88 86 87 88 90 91 91 92 92 90 88 87 87 85 89 90 92 90 91 92 91 89 87 82
60 51 56 59 67 66 65 61 73 80 79 77 80 83 85 87 89 91 94 93 89 85 82 78 85 87 86 86 88 88 88 90 92 91 91 87 88 88 88 90 91 87 89 89 87 85 85 79 75
53 54 56 55 63 64 62 62 69 76 76 76 79 81 83 85 88 92 93 92 88 87 84 84 86 86 85 85 82 88 88 89 91 90 90 87 88 87 86 89 87 86 85 85 85 81 79 74 72
57 55 53 59 64 60 59 61 66 72 74 74 76 78 80 83 89 92 91 90 85 85 84 84 84 84 82 80 84 87 86 88 89 90 87 87 88 87 84 89 81 78 76 77 74 77 73 69 69
56 53 53 59 62 60 59 58 65 68 69 72 74 77 80 83 86 89 89 86 83 83 83 83 83 82 81 85 87 89 89 89 90 89 85 86 85 83 82 78 74 73 70 72 70 70 69 67 67
55 52 52 53 59 62 57 54 59 67 71 73 75 78 80 82 84 87 86 82 85 84 82 82 80 77 80 85 86 86 86 84 83 81 76 78 78 76 76 75 74 68 66 65 66 65 66 66 70
48 58 55 50 46 44 58 44 58 65 66 69 72 75 78 81 85 87 87 84 85 86 85 83 80 80 82 83 84 82 85 78 70 68 69 71 74 73 71 67 67 69 67 64 64 65 67 67 69
49 55 51 49 46 45 50 48 56 65 63 68 72 76 79 83 85 87 87 86 88 87 86 84 82 82 81 82 84 82 71 68 66 66 67 68 70 73 73 73 72 69 63 66 66 65 67 72 71
55 48 47 48 44 33 48 49 52 60 64 69 75 77 79 84 87 88 89 88 88 89 88 85 82 80 81 83 77 72 68 66 65 66 67 67 67 67 70 69 68 65 67 67 68 68 67 68 71
48 38 32 30 30 36 54 48 53 64 69 72 74 78 81 84 86 87 87 87 87 87 85 83 78 77 79 78 75 75 71 71 72 73 67 64 65 71 69 65 67 70 69 69 69 67 67 67 68
44 45 37 27 34 43 53 44 55 66 71 73 78 81 83 85 87 88 88 88 87 85 83 75 77 77 77 79 78 76 75 79 76 72 71 69 69 66 64 68 69 67 67 68 67 69 69 67 68
37 33 46 32 40 39 50 55 62 66 67 70 74 78 81 83 84 87 88 87 85 83 76 78 77 77 77 78 76 76 77 73 71 72 70 67 65 66 67 67 66 66 67 68 67 69 66 68 67
42 46 35 38 29 30 45 49 52 60 62 67 68 73 80 82 85 87 87 83 81 76 77 78 78 77 75 77 77 70 67 68 68 69 67 69 69 70 68 66 65 66 66 66 66 67 66 66 69
37 35 40 45 41 33 37 47 64 62 66 65 70 74 79 82 85 85 73 73 73 73 76 76 79 73 75 72 66 65 69 69 69 68 70 70 69 69 68 68 67 67 66 66 67 67 66 66 67
51 45 44 33 36 44 40 36 64 67 70 70 71 78 82 84 84 68 65 66 67 68 71 70 71 71 67 65 65 67 71 70 69 68 69 71 69 70 69 68 67 66 67 66 67 67 68 69 68

GFSSGP_sfc_temp_165.txt.gz
Temp
80 92 98 95 80 82 79 85 96 95 95 101 103 99 98 100 92 81 102 100 102 97 93 88 80 81 81 80 80 79 79 79 79 79 79 79 80 80 80 80 80 81 82 82 82 81 81 81 81
95 95 95 89 76 74 80 92 91 97 99 102 101 99 98 94 104 97 99 102 100 97 93 92 80 80 80 80 79 79 79 79 79 79 79 79 80 80 80 80 80 81 81 81 81 81 81 81 81
91 96 87 82 78 73 80 93 96 100 101 98 98 103 100 96 101 103 104 103 100 95 95 90 80 80 80 80 79 79 79 79 79 79 79 79 79 79 79 80 80 81 82 82 81 81 81 80 80
91 90 88 76 75 84 86 92 99 98 99 101 101 95 103 103 101 104 104 103 100 97 97 82 79 80 80 80 79 79 79 79 79 79 79 79 79 79 79 80 80 81 82 81 81 80 80 80 80
92 88 76 75 77 85 92 96 97 94 95 98 100 95 97 101 104 104 103 103 100 99 98 88 79 79 80 80 79 79 79 79 79 79 79 79 79 79 79 80 80 81 81 81 80 80 80 80 80
81 84 73 71 78 87 92 96 95 94 95 98 98 97 99 103 103 103 104 103 103 99 94 89 80 79 79 79 79 79 79 79 79 79 79 79 79 79 79 79 80 80 80 80 80 79 79 79 79
77 78 73 76 78 84 90 98 93 92 93 95 102 92 101 102 104 104 103 103 103 100 94 89 86 84 79 79 78 78 78 78 79 78 78 78 79 79 79 79 79 79 79 79 79 79 79 79 79
82 79 73 78 76 79 93 96 97 92 91 102 103 91 93 100 102 104 104 103 102 100 95 89 88 89 88 86 78 78 78 78 78 78 78 78 79 79 79 78 79 79 79 79 79 79 79 79 79
86 70 68 73 77 82 92 91 97 97 92 96 100 99 102 99 100 102 101 101 100 98 95 93 91 90 92 92 84 79 79 78 78 79 78 78 90 87 83 83 79 79 79 79 79 79 79 79 78
75 68 70 81 85 84 89 91 92 88 88 90 95 101 104 103 97 95 96 97 98 97 96 95 92 89 91 91 84 86 88 88 88 88 84 90 92 91 92 84 79 79 79 79 79 79 79 79 94
75 67 75 79 84 86 85 86 92 87 85 89 90 96 100 101 97 97 97 99 98 99 97 98 93 91 94 93 88 88 89 89 89 89 87 91 93 91 93 89 88 87 81 89 85 85 89 95 95
68 74 75 77 80 80 79 84 83 86 87 95 96 98 100 99 98 95 98 100 99 99 98 97 96 92 93 94 91 91 90 90 89 88 87 90 90 88 91 94 93 91 92 92 93 96 94 93 93
70 72 75 78 78 78 80 77 77 80 89 92 95 95 97 96 97 98 98 100 96 94 95 98 94 91 92 90 93 92 92 91 91 90 88 91 91 89 92 93 95 94 96 95 95 94 93 93 94
73 73 73 74 74 77 74 74 76 79 86 87 88 90 93 94 95 96 97 97 93 88 90 97 94 91 93 91 91 92 93 92 93 91 91 90 88 86 90 90 91 94 95 97 96 94 93 94 94
72 65 69 71 72 71 75 67 69 79 84 84 84 86 88 91 95 95 97 95 95 86 87 92 90 89 90 91 91 91 92 94 92 92 89 90 89 87 89 90 91 93 94 94 93 92 91 92 90
65 66 59 70 73 74 71 59 73 80 80 79 82 85 87 91 93 96 97 97 96 83 82 84 90 85 88 89 90 92 93 93 94 94 92 90 89 89 87 91 91 94 93 92 93 93 92 86 85
64 56 60 63 74 72 69 63 73 80 80 79 81 84 86 89 92 94 97 97 96 83 81 79 82 83 84 88 90 91 89 93 94 95 93 89 90 90 89 92 92 91 92 92 89 87 86 81 85
56 58 61 60 69 70 66 65 73 77 79 79 82 84 86 87 90 93 95 97 97 86 80 80 79 81 82 88 86 92 90 92 95 94 94 88 90 90 87 92 90 89 89 87 81 80 81 81 79
62 59 59 64 69 64 63 65 69 75 77 77 82 82 83 86 92 95 95 95 95 87 80 78 80 80 81 86 86 89 89 90 93 93 91 89 90 89 86 91 84 78 76 76 79 80 78 78 75
59 55 56 63 67 64 64 63 68 72 73 77 79 81 83 85 88 91 94 94 92 84 78 79 81 80 82 85 88 91 91 92 93 92 89 89 88 87 86 81 79 76 75 74 75 73 77 74 70
58 54 55 56 62 66 60 57 64 71 74 75 78 81 83 84 86 89 91 92 89 80 79 79 81 81 83 86 89 89 91 90 90 86 87 86 86 84 83 81 78 75 70 68 66 68 66 66 71
51 61 59 55 52 48 60 44 59 66 68 72 75 77 79 83 86 89 90 91 86 80 80 80 82 79 84 86 86 84 86 84 86 85 78 80 81 80 79 76 75 73 77 72 70 67 66 66 70
52 62 56 55 53 49 53 45 56 66 64 70 73 76 79 83 85 88 92 91 84 79 79 81 78 82 83 85 86 86 82 72 72 76 76 76 75 76 77 75 73 72 73 69 66 67 70 73 74
61 55 56 55 48 36 49 47 53 58 65 71 76 78 80 83 86 88 93 92 84 80 80 79 80 82 83 86 84 79 70 70 72 75 74 71 75 75 74 72 71 73 74 73 73 70 71 71 71
56 45 35 33 33 38 55 48 55 66 71 74 75 79 82 84 86 88 91 86 84 77 81 82 80 79 84 82 80 75 75 75 75 74 69 72 74 73 69 71 71 73 73 73 72 70 70 70 69
47 43 34 28 34 43 56 48 56 69 74 77 79 81 84 84 88 89 91 83 81 81 84 80 80 80 81 80 79 78 77 80 75 72 76 77 71 71 71 71 72 70 72 71 70 72 71 69 70
40 35 47 35 43 41 50 52 65 71 71 74 75 77 81 83 86 89 92 75 77 81 79 81 82 81 79 80 79 76 79 77 74 75 76 72 70 71 73 72 70 71 71 71 71 70 70 69 69
43 48 34 35 29 30 42 47 50 61 66 70 72 74 79 84 86 90 91 68 73 77 79 82 82 79 81 79 78 77 77 76 74 73 70 73 73 73 72 71 70 70 70 70 71 70 69 68 70
40 36 39 45 42 35 37 47 57 57 62 69 72 75 80 85 87 89 79 64 71 74 75 76 78 80 77 73 72 73 74 73 72 72 72 73 73 73 72 72 72 71 70 70 69 69 70 69 69
52 47 45 37 39 46 44 44 58 62 64 65 72 77 82 87 89 87 70 65 68 70 74 74 75 71 70 72 72 71 72 71 71 71 72 73 73 73 73 73 72 72 71 71 70 70 71 71 69

GFSSGP_sfc_temp_168.txt.gz
Temp
79 87 92 90 75 76 72 79 90 89 93 103 103 98 96 98 84 64 99 99 95 90 85 84 80 80 80 80 79 79 79 79 79 79 79 79 79 80 80 80 80 81 81 81 81 81 81 81 81
84 92 92 85 70 67 73 86 85 92 99 103 101 100 97 93 96 91 95 100 95 89 84 84 80 80 80 80 79 79 79 79 79 79 79 79 79 79 80 80 80 81 81 81 81 81 81 81 81
82 89 82 77 72 68 73 87 91 97 102 101 97 102 99 96 98 97 99 99 93 89 88 82 80 80 80 79 79 79 79 79 79 79 79 79 79 79 79 80 80 81 81 81 81 81 81 80 80
88 88 84 70 70 79 80 86 92 94 100 103 100 94 103 103 102 101 101 99 93 91 90 80 79 79 79 79 79 79 79 79 79 79 79 79 79 79 79 80 80 81 81 81 81 80 80 80 80
88 83 71 70 72 80 87 92 95 92 95 98 100 93 96 101 105 102 101 99 94 92 86 81 79 79 79 79 79 79 79 79 79 79 79 79 79 79 79 80 80 81 81 81 80 80 80 80 80
77 79 66 66 72 81 88 93 93 93 95 97 96 96 96 102 101 102 102 99 98 93 84 81 80 79 79 79 79 79 78 78 79 79 79 79 79 79 79 79 80 80 80 80 80 79 79 79 79
73 73 67 70 72 78 86 95 91 91 93 94 99 91 97 99 102 103 102 101 99 91 87 82 81 80 79 79 78 78 78 78 78 78 78 78 79 79 79 79 79 79 79 79 79 79 79 79 79
78 74 68 72 72 74 88 91 96 94 92 102 102 90 92 96 103 102 103 101 99 92 87 84 81 82 81 81 78 78 78 78 78 78 78 78 78 78 79 78 79 79 79 79 79 79 79 79 78
83 67 64 68 71 76 88 86 95 99 96 97 98 98 99 100 102 100 99 99 98 93 88 87 85 84 84 82 80 78 79 78 78 78 78 77 82 80 79 81 78 79 79 79 79 79 79 78 78
72 66 66 76 79 78 84 85 88 90 91 90 92 99 103 100 98 95 94 95 95 91 89 89 86 84 86 86 79 81 82 81 81 81 79 82 83 81 85 80 78 79 79 79 79 79 78 78 81
73 66 73 76 80 81 79 79 85 83 83 90 88 93 99 100 95 95 97 97 95 93 90 90 85 83 88 85 82 83 82 82 82 81 80 81 85 82 82 78 80 78 78 80 79 78 79 81 83
69 74 75 76 79 77 75 79 77 81 85 94 95 96 97 98 96 94 96 98 95 92 90 89 88 84 84 82 83 82 82 82 82 82 79 79 83 81 82 81 81 79 80 80 79 82 81 84 86
71 73 76 77 77 77 78 75 75 78 86 90 91 92 93 96 97 96 95 98 93 91 91 90 87 84 83 80 84 83 82 82 82 82 81 82 82 80 81 82 83 82 82 82 82 82 84 83 85
72 72 73 75 75 75 72 73 76 78 84 84 84 86 90 91 96 97 94 93 87 84 89 90 87 85 84 82 82 82 82 82 82 82 81 82 81 80 81 82 81 82 83 84 83 83 82 82 84
72 66 69 71 72 71 74 66 68 78 81 79 81 84 87 89 92 94 94 91 93 81 76 82 85 86 83 83 84 85 84 86 84 83 82 83 82 81 82 81 79 79 82 85 83 84 84 81 81
64 65 57 69 72 73 71 58 71 78 77 76 78 81 85 87 89 91 94 92 93 84 77 75 84 84 84 84 83 87 86 86 85 84 83 84 83 82 82 81 80 82 82 83 82 81 76 74 77
62 54 58 63 74 73 70 62 72 78 76 75 77 79 82 85 88 88 91 93 90 82 75 73 77 84 83 82 85 85 84 86 86 86 84 83 84 85 82 81 82 84 82 81 81 79 77 75 75
54 56 60 60 68 69 66 65 72 76 76 75 77 79 80 82 85 88 91 92 92 84 78 74 75 80 82 80 82 84 84 85 86 86 85 83 84 85 82 82 82 81 77 77 78 75 76 74 72
61 57 57 63 69 66 64 63 67 73 75 74 76 77 79 81 86 89 91 91 90 82 80 77 76 78 81 79 81 77 81 84 85 85 84 84 85 84 80 81 78 78 77 76 76 76 74 72 72
60 56 56 62 67 65 63 61 68 70 71 73 74 77 79 82 84 87 89 89 86 81 79 78 78 77 77 79 82 84 83 85 85 84 83 83 84 81 81 79 76 75 75 73 72 72 72 70 68
58 55 55 55 62 64 61 58 62 70 71 74 76 77 80 82 83 84 87 86 87 80 79 78 77 78 77 78 82 81 83 82 81 81 81 81 82 81 79 78 75 74 74 69 68 68 67 65 65
53 63 60 55 54 48 59 42 55 63 66 70 73 75 77 79 84 86 86 86 84 81 80 79 80 79 80 80 81 79 81 80 81 81 80 80 80 77 74 74 72 72 72 70 69 68 66 64 64
56 63 58 55 51 49 50 45 53 62 59 64 70 74 76 79 82 84 87 88 89 82 80 80 79 78 79 80 81 81 80 80 81 78 76 74 72 73 73 73 71 70 68 68 67 64 67 68 67
64 58 57 54 48 36 48 46 48 56 62 66 72 75 76 79 82 83 86 89 86 82 79 79 78 76 78 79 80 80 74 74 76 74 70 69 69 70 70 71 71 71 70 70 68 68 67 66 65
52 49 34 32 32 35 52 48 52 61 68 69 70 71 77 79 81 82 84 88 85 79 79 78 76 73 76 78 80 75 74 74 74 71 69 68 67 68 68 70 70 70 69 69 68 66 66 65 64
43 41 36 28 29 35 51 38 49 66 70 73 75 75 80 79 81 82 85 85 81 79 78 77 73 73 73 78 75 74 75 75 73 71 72 72 68 68 70 69 69 69 68 68 68 67 66 65 64
43 37 45 33 38 34 43 51 56 61 67 71 73 74 76 79 80 82 85 84 78 77 76 76 74 76 77 76 75 74 76 73 71 73 71 71 69 70 69 69 68 68 68 68 66 65 64 65 64
52 54 35 35 28 30 42 46 51 58 60 60 66 72 75 79 81 83 85 83 78 78 76 77 79 77 76 76 76 76 72 72 73 71 69 69 70 69 68 67 67 66 67 67 66 64 65 64 64
45 39 40 42 39 31 33 43 57 58 60 55 63 68 76 78 80 84 86 83 78 77 76 75 77 76 76 76 75 73 72 72 71 71 71 70 69 69 68 68 68 67 66 66 64 65 66 65 64
55 44 44 33 36 43 39 37 61 62 63 64 64 69 76 79 81 86 81 70 68 74 72 74 73 75 75 74 71 70 70 70 70 69 69 70 68 70 69 69 68 68 68 67 67 66 68 65 64

GFSSGP_sfc_temp_171.txt.gz
Temp
71 76 74 72 57 55 51 61 73 75 79 86 89 87 83 84 77 65 83 87 83 80 80 81 80 80 80 79 79 78 78 78 79 79 79 79 79 79 79 79 80 80 81 81 81 81 81 80 80
70 77 74 67 52 45 53 68 70 78 86 91 92 86 86 79 85 80 84 85 84 80 80 80 80 80 80 79 79 78 78 78 78 79 79 79 79 79 79 80 80 81 81 81 81 81 80 80 80
74 78 62 57 50 49 51 68 73 81 86 89 84 90 88 83 87 85 88 87 84 81 80 80 80 80 79 79 78 78 78 78 79 79 79 79 79 79 79 79 80 81 81 81 81 80 80 80 80
73 69 66 52 51 59 66 70 77 81 85 89 89 84 91 94 91 90 89 87 83 82 80 80 79 79 79 79 79 78 78 78 79 79 79 79 79 78 79 79 80 80 81 81 80 79 79 79 79
70 64 51 48 54 64 72 76 77 78 79 83 85 85 83 91 95 89 87 87 83 80 79 79 79 79 79 79 79 78 78 78 78 79 79 79 79 78 79 79 80 80 80 80 80 79 78 78 78
59 61 46 47 57 67 73 76 78 80 82 84 84 83 80 93 92 89 89 87 86 78 78 79 79 79 79 79 78 78 78 78 78 78 79 79 78 78 79 79 79 79 79 79 79 78 78 78 78
53 52 48 52 58 64 71 78 75 79 79 82 85 79 81 89 93 92 90 88 82 80 78 78 78 79 79 78 78 78 78 78 78 78 78 78 78 78 78 78 78 78 78 78 78 78 78 77 78
62 55 51 57 57 60 72 77 76 76 81 92 91 78 74 88 94 93 91 84 81 79 78 76 76 78 78 77 78 78 78 77 77 78 77 77 78 78 78 77 78 78 78 78 78 78 77 77 77
66 51 50 52 58 62 72 71 81 83 78 84 89 87 90 92 94 92 86 81 80 79 77 76 76 76 77 76 78 78 78 78 78 78 77 76 74 75 76 77 78 78 78 78 78 77 77 77 77
56 47 51 62 66 64 69 71 72 74 75 77 81 89 92 93 90 86 84 79 78 77 77 77 77 77 77 80 76 76 77 76 76 75 75 74 74 73 78 77 78 78 78 78 77 77 77 78 73
58 54 62 66 69 70 69 70 73 71 68 73 75 82 85 87 85 85 87 82 80 79 80 79 78 79 78 77 76 76 75 74 74 74 74 73 77 75 74 72 74 72 76 73 75 74 73 73 74
53 64 66 66 69 67 65 70 70 71 72 79 81 83 82 83 82 83 83 85 81 80 80 81 80 79 79 76 77 76 76 75 74 75 74 71 72 75 74 73 72 70 72 71 72 71 73 74 77
56 61 66 67 65 65 69 66 66 68 76 80 81 82 78 79 79 81 84 84 82 81 81 81 80 77 77 76 76 77 76 76 75 75 75 74 74 76 75 74 74 74 73 73 73 74 76 77 79
61 63 64 65 63 64 63 64 65 70 75 76 78 77 78 78 79 80 81 81 80 78 77 75 77 77 77 77 75 77 77 75 77 76 76 75 76 76 75 74 75 74 75 76 78 75 76 75 78
63 55 60 62 62 61 65 59 62 71 73 71 74 76 78 78 80 80 79 79 81 75 74 71 73 78 78 78 77 76 78 77 76 77 75 77 77 76 76 75 76 76 76 78 78 79 76 75 76
55 53 45 57 64 66 62 52 65 70 69 69 71 75 76 76 77 80 81 78 79 74 72 72 76 78 80 80 79 80 79 79 79 78 75 77 78 77 74 74 75 76 76 76 75 72 71 70 72
49 43 47 54 65 64 61 56 66 70 68 68 69 70 74 75 78 79 80 79 77 74 72 71 72 73 75 79 80 79 79 80 80 79 78 77 78 79 75 73 74 74 73 73 74 72 73 69 70
43 46 51 51 60 63 57 56 63 67 68 66 66 69 72 73 76 80 81 78 75 73 73 72 73 72 72 74 78 77 78 80 81 80 79 77 77 78 74 73 73 72 71 71 72 71 70 68 65
55 51 50 56 62 59 56 56 61 64 63 63 64 67 69 72 77 80 81 79 74 73 71 71 70 68 71 71 75 73 78 80 80 82 79 78 78 77 73 72 71 72 71 69 70 68 66 64 64
54 50 49 56 61 58 56 55 61 64 62 65 64 64 67 69 74 77 79 79 73 69 70 69 69 69 72 72 83 76 82 79 78 81 79 78 76 75 73 71 70 70 68 66 65 66 63 63 64
54 52 51 50 57 59 53 50 55 62 65 66 65 67 69 71 71 73 79 80 74 69 68 68 70 72 73 75 78 76 78 75 74 76 76 74 75 74 73 71 69 67 67 65 64 64 64 62 63
47 59 57 54 50 39 51 36 51 54 57 62 64 66 68 70 73 73 76 79 73 72 72 72 70 69 72 74 74 75 78 74 77 77 72 71 72 72 70 69 68 69 66 65 65 64 62 62 61
51 58 54 53 45 42 44 37 47 53 52 57 63 65 65 70 71 72 74 80 78 78 74 73 71 70 73 71 73 73 75 74 75 72 69 69 69 71 71 69 68 65 64 63 62 62 61 61 60
59 51 48 46 43 33 40 41 42 47 52 57 63 66 69 71 73 73 76 73 74 76 75 76 74 72 73 72 72 72 76 74 71 69 68 68 67 69 69 68 67 64 63 62 61 61 60 59 58
47 40 31 29 29 30 46 41 44 52 59 61 62 66 68 71 72 73 73 73 71 73 73 74 73 72 74 74 74 72 75 73 69 68 67 66 67 67 67 66 64 63 62 62 62 60 59 58 56
45 38 32 25 27 31 44 34 39 57 62 62 64 66 70 69 72 73 74 72 70 74 73 74 73 73 73 73 71 71 73 71 69 68 67 66 67 67 66 66 63 62 62 61 60 58 58 58 57
40 34 43 33 34 29 34 44 51 58 59 59 61 64 65 67 67 73 74 74 67 74 74 74 73 72 70 71 70 70 69 68 69 69 67 68 68 66 65 63 62 61 61 60 59 57 57 57 57
47 49 32 34 22 22 34 38 39 47 50 56 58 55 60 66 71 73 76 75 66 76 74 72 71 69 71 70 70 70 68 68 68 67 67 67 67 66 62 62 61 60 60 59 58 57 57 56 56
41 35 38 38 35 27 25 32 48 47 50 53 51 55 57 63 69 73 76 77 68 75 74 70 69 68 69 70 70 68 68 67 67 66 66 66 65 63 62 62 61 60 59 58 57 57 58 57 56
47 42 41 32 30 34 31 33 55 52 57 55 56 61 59 61 69 67 74 74 69 71 72 69 68 69 71 70 69 69 68 69 67 67 66 65 64 64 63 63 62 61 60 58 58 59 59 58 58

GFSSGP_sfc_temp_174.txt.gz
Temp
67 70 70 68 56 50 46 55 65 68 69 75 81 79 80 81 76 65 81 85 81 79 79 80 79 80 79 79 79 79 78 79 79 79 79 79 79 79 79 79 79 80 81 81 81 81 80 80 80
67 74 69 61 49 41 47 58 65 71 76 82 84 80 80 78 82 77 79 82 81 79 79 79 79 79 79 79 78 78 78 79 79 79 79 79 79 79 79 79 80 80 81 81 81 80 80 80 80
71 73 61 54 44 44 47 59 67 74 77 78 78 87 83 81 83 81 81 82 80 78 79 79 79 79 79 79 78 78 78 78 79 79 79 79 79 79 79 79 79 80 81 81 81 80 79 79 79
68 64 60 49 47 52 56 64 66 73 78 79 80 79 86 90 87 84 83 82 79 77 78 79 79 79 79 79 78 78 78 79 79 79 79 79 79 78 78 79 79 80 80 80 80 79 79 79 79
64 57 47 42 48 54 63 67 70 68 72 77 78 77 78 88 87 84 81 82 78 77 78 79 79 79 79 79 79 78 78 78 79 79 79 79 78 78 78 79 79 79 80 80 79 79 78 78 78
57 54 42 41 49 59 63 68 68 70 73 76 76 78 78 85 83 82 83 81 80 78 77 78 79 79 78 78 78 78 78 78 78 79 79 78 78 78 78 79 79 79 79 79 79 78 77 77 77
51 46 40 43 49 55 63 67 68 67 68 72 79 72 76 80 83 84 83 79 79 78 77 78 78 79 79 78 78 78 78 78 78 78 78 78 78 78 78 78 78 78 78 78 78 77 77 77 77
56 50 41 44 48 50 64 68 68 67 71 80 81 69 71 81 85 84 81 77 76 76 77 77 77 79 78 78 78 78 78 78 77 78 78 77 78 78 77 76 77 78 77 77 77 77 77 77 77
59 44 37 43 49 53 63 61 71 76 72 75 77 76 81 86 86 82 76 76 74 76 75 77 77 78 79 78 77 77 78 78 77 77 77 76 74 74 76 76 77 77 77 77 77 77 77 77 77
52 41 45 56 58 57 61 61 67 69 68 68 74 80 83 75 79 77 74 72 73 73 73 76 77 77 78 79 78 75 77 76 75 75 75 73 72 72 76 76 77 77 77 77 77 77 77 77 71
50 47 56 60 62 63 63 62 67 65 61 67 68 73 78 75 66 72 76 75 75 74 75 75 76 77 78 78 76 75 75 75 75 76 72 70 72 71 71 70 73 71 75 71 73 72 71 71 71
49 58 59 61 64 59 59 64 65 65 64 73 73 76 77 75 70 67 66 77 76 74 75 75 75 75 75 78 74 74 75 74 74 74 71 69 69 69 69 69 69 69 69 69 69 69 70 71 73
49 55 60 61 59 59 63 61 61 63 69 73 74 74 74 73 72 71 68 71 75 74 76 75 76 75 74 74 73 73 72 72 72 72 72 71 70 71 70 69 68 68 68 68 68 69 71 72 75
56 58 58 58 58 58 58 60 61 68 73 70 71 70 71 73 73 72 74 75 72 72 73 73 74 75 74 73 72 71 70 70 72 74 73 73 72 72 71 70 71 69 70 70 71 71 71 73 75
58 51 56 57 57 56 60 57 59 68 68 67 68 71 71 72 73 71 72 73 72 70 70 71 70 74 75 74 74 71 70 71 71 73 73 75 74 74 73 73 72 72 72 73 72 74 72 73 74
50 47 39 52 58 61 58 49 62 66 64 65 67 69 72 69 72 72 73 71 71 69 69 70 74 71 74 74 74 74 71 70 71 71 73 76 76 75 74 73 72 73 73 72 72 73 72 70 72
43 36 42 49 58 58 56 52 63 66 64 64 66 65 68 69 69 71 72 72 72 71 70 70 71 71 73 74 76 75 73 73 72 72 73 75 76 77 73 73 73 72 71 70 72 69 69 68 67
38 40 44 46 56 58 54 54 61 62 63 63 66 66 65 69 68 71 72 73 72 71 71 72 72 72 72 72 75 75 76 76 76 74 75 76 75 76 73 71 71 71 72 68 69 67 65 64 66
50 47 45 52 59 53 53 54 58 61 59 59 59 61 61 66 71 71 72 73 71 70 70 69 70 71 70 72 71 71 75 77 76 77 77 76 76 76 72 70 70 69 69 67 67 65 64 61 62
50 46 46 53 58 54 53 53 58 57 59 59 61 63 61 61 68 71 67 71 69 69 70 69 70 71 72 75 76 79 79 77 78 77 76 76 75 73 71 70 68 66 67 65 65 65 63 61 60
49 47 47 48 53 55 52 49 53 59 59 61 63 62 63 66 67 69 69 67 68 68 68 69 69 70 71 70 73 72 71 71 71 72 75 73 73 72 71 69 66 65 66 65 64 63 63 60 60
43 53 52 50 47 40 52 34 47 51 54 59 63 61 62 64 67 69 69 66 67 68 69 70 70 70 68 67 72 74 76 73 72 72 70 71 72 71 69 67 67 65 64 63 63 62 61 61 58
44 53 49 47 42 41 44 37 45 52 50 55 60 62 61 63 65 65 68 69 68 69 68 71 70 69 71 70 72 72 73 72 72 70 69 69 68 68 68 67 65 64 63 61 61 60 59 58 57
52 44 42 41 37 29 39 39 42 47 50 56 59 59 63 64 66 69 70 70 67 68 68 69 70 69 70 72 72 71 70 70 69 68 68 68 67 67 66 66 63 62 61 60 59 58 58 56 55
47 36 28 27 26 29 43 40 42 50 56 58 58 60 63 65 65 69 66 68 64 67 67 68 68 68 70 72 72 71 69 71 69 69 68 66 66 66 65 64 62 61 60 59 59 57 56 55 54
38 36 25 22 20 28 38 31 38 54 60 62 64 62 61 62 65 68 70 70 69 69 69 69 67 66 69 70 68 69 69 69 69 69 67 66 66 65 65 63 62 61 60 59 57 56 55 55 55
36 29 40 33 34 29 32 39 48 54 55 56 58 58 57 57 63 65 69 64 65 68 70 72 68 67 69 69 65 69 70 69 67 66 66 65 65 65 65 63 61 60 59 58 56 55 55 55 54
42 46 29 33 25 24 30 34 36 44 47 50 52 52 54 56 60 61 64 63 61 69 71 73 71 69 69 72 68 68 68 68 66 66 65 64 65 65 62 61 60 58 58 57 56 56 56 55 53
36 32 37 36 34 25 26 31 45 45 46 48 51 51 54 56 59 59 62 64 67 72 70 72 72 70 70 70 68 67 67 67 66 65 65 64 65 63 61 60 59 58 57 56 56 55 56 54 53
43 41 40 31 30 33 29 33 53 48 49 50 52 58 54 59 59 63 61 62 63 67 68 70 70 69 68 68 67 66 67 66 65 64 64 65 63 63 61 60 59 59 57 56 56 57 56 55 54